contact:dominique.lefevre@mio.osupytheas.fr, maurice.libes@osupytheas.fr, didier.mallarino@osupytheas.fr
Project:EMSO http://www.emso-fr.org/EMSO-France
Depth: 2436.0 m
Title:EMSO Ligure Ouest : Data MII capteur CSTAR
DateTime,Latitude,Longitude,Instrument_Serial,Reference_Counts,Signal_Counts,Corrected_Signal_raw_counts,Calculated_Beam_c_inverse_meters,Internal_thermistor_counts
DateTime,Latitude,Longitude,Instrument_Serial,Reference_Counts,Signal_Counts,Corrected_Signal_raw_counts,Calculated_Beam_c_inverse_meters,Internal_thermistor_counts
2020-03-25T00:02:28,42.805,6.029,CST-1368DR,6569,9208,15204,0.107,550
2020-03-25T00:05:29,42.805,6.029,CST-1368DR,6569,9209,15207,0.106,551
2020-03-25T00:08:31,42.805,6.029,CST-1368DR,6569,9212,15211,0.105,551
2020-03-25T00:11:33,42.805,6.029,CST-1368DR,6569,9210,15207,0.106,550
2020-03-25T00:14:35,42.805,6.029,CST-1368DR,6569,9212,15211,0.105,551
2020-03-25T00:17:36,42.805,6.029,CST-1368DR,6569,9213,15212,0.105,551
2020-03-25T00:20:38,42.805,6.029,CST-1368DR,6569,9212,15212,0.105,551
2020-03-25T00:23:40,42.805,6.029,CST-1368DR,6569,9212,15212,0.105,551
2020-03-25T00:26:41,42.805,6.029,CST-1368DR,6569,9212,15212,0.105,551
2020-03-25T00:29:43,42.805,6.029,CST-1368DR,6569,9210,15208,0.106,551
2020-03-25T00:32:45,42.805,6.029,CST-1368DR,6569,9212,15212,0.105,551
2020-03-25T00:35:46,42.805,6.029,CST-1368DR,6569,9212,15211,0.105,551
2020-03-25T00:38:48,42.805,6.029,CST-1368DR,6569,9212,15211,0.105,551
2020-03-25T00:41:50,42.805,6.029,CST-1368DR,6569,9212,15211,0.105,551
2020-03-25T00:44:52,42.805,6.029,CST-1368DR,6569,9213,15212,0.105,551
2020-03-25T00:47:53,42.805,6.029,CST-1368DR,6569,9213,15212,0.105,551
2020-03-25T00:50:55,42.805,6.029,CST-1368DR,6569,9213,15212,0.105,550
2020-03-25T00:53:57,42.805,6.029,CST-1368DR,6569,9212,15212,0.105,551
2020-03-25T00:56:58,42.805,6.029,CST-1368DR,6569,9212,15211,0.105,551
2020-03-25T01:00:00,42.805,6.029,CST-1368DR,6569,9213,15213,0.105,551
2020-03-25T01:03:02,42.805,6.029,CST-1368DR,6569,9213,15213,0.105,551
2020-03-25T01:06:03,42.805,6.029,CST-1368DR,6569,9213,15213,0.105,551
2020-03-25T01:09:05,42.805,6.029,CST-1368DR,6569,9211,15210,0.105,551
2020-03-25T01:12:07,42.805,6.029,CST-1368DR,6569,9212,15211,0.105,551
2020-03-25T01:15:09,42.805,6.029,CST-1368DR,6569,9213,15213,0.105,551
2020-03-25T01:18:10,42.805,6.029,CST-1368DR,6569,9212,15211,0.105,551
2020-03-25T01:21:12,42.805,6.029,CST-1368DR,6569,9212,15212,0.105,551
2020-03-25T01:24:14,42.805,6.029,CST-1368DR,6569,9212,15212,0.105,551
2020-03-25T01:27:15,42.805,6.029,CST-1368DR,6569,9213,15213,0.105,551
2020-03-25T01:30:17,42.805,6.029,CST-1368DR,6569,9213,15213,0.105,551
2020-03-25T01:33:19,42.805,6.029,CST-1368DR,6569,9214,15214,0.104,551
2020-03-25T01:36:21,42.805,6.029,CST-1368DR,6569,9212,15211,0.105,551
2020-03-25T01:39:22,42.805,6.029,CST-1368DR,6569,9213,15212,0.105,551
2020-03-25T01:42:24,42.805,6.029,CST-1368DR,6569,9211,15210,0.105,550
2020-03-25T01:45:26,42.805,6.029,CST-1368DR,6569,9212,15211,0.105,551
2020-03-25T01:48:27,42.805,6.029,CST-1368DR,6569,9212,15211,0.105,550
2020-03-25T01:51:29,42.805,6.029,CST-1368DR,6569,9212,15211,0.105,551
2020-03-25T01:54:31,42.805,6.029,CST-1368DR,6569,9213,15212,0.105,550
2020-03-25T01:57:33,42.805,6.029,CST-1368DR,6569,9212,15211,0.105,551
2020-03-25T02:00:34,42.805,6.029,CST-1368DR,6569,9213,15213,0.105,551
2020-03-25T02:03:36,42.805,6.029,CST-1368DR,6569,9210,15208,0.106,550
2020-03-25T02:06:38,42.805,6.029,CST-1368DR,6569,9212,15212,0.105,551
2020-03-25T02:09:40,42.805,6.029,CST-1368DR,6569,9212,15211,0.105,551
2020-03-25T02:12:41,42.805,6.029,CST-1368DR,6569,9212,15211,0.105,551
2020-03-25T02:15:43,42.805,6.029,CST-1368DR,6569,9212,15211,0.105,551
2020-03-25T02:18:45,42.805,6.029,CST-1368DR,6569,9212,15211,0.105,550
2020-03-25T02:21:47,42.805,6.029,CST-1368DR,6569,9212,15211,0.105,551
2020-03-25T02:24:48,42.805,6.029,CST-1368DR,6569,9212,15211,0.105,551
2020-03-25T02:27:50,42.805,6.029,CST-1368DR,6569,9211,15209,0.106,551
2020-03-25T02:30:52,42.805,6.029,CST-1368DR,6569,9212,15211,0.105,551
2020-03-25T02:33:53,42.805,6.029,CST-1368DR,6569,9211,15210,0.105,551
2020-03-25T02:36:55,42.805,6.029,CST-1368DR,6569,9211,15209,0.106,551
2020-03-25T02:39:57,42.805,6.029,CST-1368DR,6569,9212,15211,0.105,551
2020-03-25T02:42:58,42.805,6.029,CST-1368DR,6569,9212,15211,0.105,551
2020-03-25T02:46:00,42.805,6.029,CST-1368DR,6569,9211,15210,0.105,551
2020-03-25T02:49:02,42.805,6.029,CST-1368DR,6569,9212,15211,0.105,551
2020-03-25T02:52:04,42.805,6.029,CST-1368DR,6569,9212,15212,0.105,551
2020-03-25T02:55:06,42.805,6.029,CST-1368DR,6569,9212,15211,0.105,551
2020-03-25T02:58:07,42.805,6.029,CST-1368DR,6569,9213,15212,0.105,551
2020-03-25T03:01:09,42.805,6.029,CST-1368DR,6569,9212,15211,0.105,551
2020-03-25T03:04:11,42.805,6.029,CST-1368DR,6569,9212,15211,0.105,551
2020-03-25T03:07:12,42.805,6.029,CST-1368DR,6569,9212,15212,0.105,551
2020-03-25T03:10:14,42.805,6.029,CST-1368DR,6569,9211,15210,0.105,551
2020-03-25T03:13:16,42.805,6.029,CST-1368DR,6569,9211,15210,0.105,551
2020-03-25T03:16:18,42.805,6.029,CST-1368DR,6569,9212,15211,0.105,550
2020-03-25T03:19:19,42.805,6.029,CST-1368DR,6569,9212,15211,0.105,551
2020-03-25T03:22:21,42.805,6.029,CST-1368DR,6569,9211,15210,0.105,550
2020-03-25T03:25:23,42.805,6.029,CST-1368DR,6569,9212,15211,0.105,551
2020-03-25T03:28:24,42.805,6.029,CST-1368DR,6569,9212,15211,0.105,551
2020-03-25T03:31:26,42.805,6.029,CST-1368DR,6569,9212,15211,0.105,551
2020-03-25T03:34:28,42.805,6.029,CST-1368DR,6569,9212,15211,0.105,551
2020-03-25T03:37:30,42.805,6.029,CST-1368DR,6569,9211,15210,0.105,551
2020-03-25T03:40:31,42.805,6.029,CST-1368DR,6569,9212,15211,0.105,551
2020-03-25T03:43:33,42.805,6.029,CST-1368DR,6569,9212,15211,0.105,551
2020-03-25T03:46:35,42.805,6.029,CST-1368DR,6569,9212,15211,0.105,551
2020-03-25T03:49:36,42.805,6.029,CST-1368DR,6569,9212,15211,0.105,551
2020-03-25T03:52:38,42.805,6.029,CST-1368DR,6569,9212,15211,0.105,551
2020-03-25T03:55:40,42.805,6.029,CST-1368DR,6569,9211,15209,0.106,551
2020-03-25T03:58:41,42.805,6.029,CST-1368DR,6569,9212,15211,0.105,551
2020-03-25T04:01:43,42.805,6.029,CST-1368DR,6569,9211,15210,0.105,551
2020-03-25T04:04:45,42.805,6.029,CST-1368DR,6569,9211,15210,0.105,551
2020-03-25T04:07:47,42.805,6.029,CST-1368DR,6569,9211,15209,0.106,551
2020-03-25T04:10:48,42.805,6.029,CST-1368DR,6569,9211,15209,0.106,551
2020-03-25T04:13:50,42.805,6.029,CST-1368DR,6569,9211,15209,0.106,551
2020-03-25T04:16:52,42.805,6.029,CST-1368DR,6569,9211,15210,0.105,551
2020-03-25T04:19:54,42.805,6.029,CST-1368DR,6569,9211,15210,0.105,551
2020-03-25T04:22:55,42.805,6.029,CST-1368DR,6569,9211,15210,0.105,551
2020-03-25T04:25:57,42.805,6.029,CST-1368DR,6569,9211,15210,0.105,551
2020-03-25T04:28:59,42.805,6.029,CST-1368DR,6569,9211,15210,0.105,551
2020-03-25T04:32:01,42.805,6.029,CST-1368DR,6569,9210,15208,0.106,551
2020-03-25T04:35:02,42.805,6.029,CST-1368DR,6568,9211,15212,0.105,551
2020-03-25T04:38:04,42.805,6.029,CST-1368DR,6569,9210,15208,0.106,551
2020-03-25T04:41:06,42.805,6.029,CST-1368DR,6569,9210,15207,0.106,551
2020-03-25T04:44:08,42.805,6.029,CST-1368DR,6568,9211,15211,0.105,551
2020-03-25T04:47:09,42.805,6.029,CST-1368DR,6568,9211,15211,0.105,551
2020-03-25T04:50:11,42.805,6.029,CST-1368DR,6569,9212,15211,0.105,551
2020-03-25T04:53:13,42.805,6.029,CST-1368DR,6569,9210,15208,0.106,551
2020-03-25T04:56:14,42.805,6.029,CST-1368DR,6568,9211,15212,0.105,551
2020-03-25T04:59:16,42.805,6.029,CST-1368DR,6568,9212,15213,0.105,551
2020-03-25T05:02:18,42.805,6.029,CST-1368DR,6568,9211,15212,0.105,551
2020-03-25T05:05:19,42.805,6.029,CST-1368DR,6568,9212,15213,0.105,551
2020-03-25T05:08:21,42.805,6.029,CST-1368DR,6568,9207,15205,0.107,551
2020-03-25T05:11:23,42.805,6.029,CST-1368DR,6568,9212,15213,0.105,551
2020-03-25T05:14:25,42.805,6.029,CST-1368DR,6568,9211,15211,0.105,551
2020-03-25T05:17:26,42.805,6.029,CST-1368DR,6568,9211,15212,0.105,550
2020-03-25T05:20:28,42.805,6.029,CST-1368DR,6568,9212,15213,0.105,551
2020-03-25T05:23:30,42.805,6.029,CST-1368DR,6568,9212,15213,0.105,551
2020-03-25T05:26:31,42.805,6.029,CST-1368DR,6568,9212,15213,0.105,551
2020-03-25T05:29:33,42.805,6.029,CST-1368DR,6568,9211,15211,0.105,551
2020-03-25T05:32:35,42.805,6.029,CST-1368DR,6568,9211,15212,0.105,551
2020-03-25T05:35:37,42.805,6.029,CST-1368DR,6568,9211,15212,0.105,551
2020-03-25T05:38:38,42.805,6.029,CST-1368DR,6568,9211,15212,0.105,551
2020-03-25T05:41:40,42.805,6.029,CST-1368DR,6568,9212,15213,0.105,551
2020-03-25T05:44:42,42.805,6.029,CST-1368DR,6568,9211,15212,0.105,551
2020-03-25T05:47:44,42.805,6.029,CST-1368DR,6568,9211,15212,0.105,551
2020-03-25T05:50:45,42.805,6.029,CST-1368DR,6568,9212,15213,0.105,550
2020-03-25T05:53:47,42.805,6.029,CST-1368DR,6568,9211,15212,0.105,551
2020-03-25T05:56:49,42.805,6.029,CST-1368DR,6568,9212,15213,0.105,551
2020-03-25T05:59:50,42.805,6.029,CST-1368DR,6568,9212,15214,0.104,551
2020-03-25T06:02:52,42.805,6.029,CST-1368DR,6568,9211,15212,0.105,551
2020-03-25T06:05:54,42.805,6.029,CST-1368DR,6568,9211,15211,0.105,551
2020-03-25T06:08:55,42.805,6.029,CST-1368DR,6568,9212,15213,0.105,551
2020-03-25T06:11:57,42.805,6.029,CST-1368DR,6568,9204,15200,0.108,551
2020-03-25T06:14:59,42.805,6.029,CST-1368DR,6568,9212,15213,0.105,550
2020-03-25T06:18:00,42.805,6.029,CST-1368DR,6568,9211,15212,0.105,551
2020-03-25T06:21:02,42.805,6.029,CST-1368DR,6568,9211,15212,0.105,551
2020-03-25T06:24:04,42.805,6.029,CST-1368DR,6568,9211,15212,0.105,551
2020-03-25T06:27:05,42.805,6.029,CST-1368DR,6568,9211,15212,0.105,551
2020-03-25T06:30:07,42.805,6.029,CST-1368DR,6568,9211,15212,0.105,551
2020-03-25T06:33:09,42.805,6.029,CST-1368DR,6568,9211,15211,0.105,551
2020-03-25T06:36:11,42.805,6.029,CST-1368DR,6568,9211,15212,0.105,551
2020-03-25T06:39:13,42.805,6.029,CST-1368DR,6568,9211,15211,0.105,551
2020-03-25T06:42:14,42.805,6.029,CST-1368DR,6568,9211,15212,0.105,551
2020-03-25T06:45:16,42.805,6.029,CST-1368DR,6568,9211,15212,0.105,551
2020-03-25T06:48:18,42.805,6.029,CST-1368DR,6568,9209,15209,0.106,551
2020-03-25T06:51:19,42.805,6.029,CST-1368DR,6568,9200,15194,0.110,551
2020-03-25T06:54:21,42.805,6.029,CST-1368DR,6568,9212,15213,0.105,551
2020-03-25T06:57:23,42.805,6.029,CST-1368DR,6568,9209,15208,0.106,551
2020-03-25T07:00:24,42.805,6.029,CST-1368DR,6568,9211,15212,0.105,551
2020-03-25T07:03:26,42.805,6.029,CST-1368DR,6568,9211,15212,0.105,551
2020-03-25T07:06:28,42.805,6.029,CST-1368DR,6568,9211,15212,0.105,551
2020-03-25T07:09:29,42.805,6.029,CST-1368DR,6568,9211,15212,0.105,550
2020-03-25T07:12:31,42.805,6.029,CST-1368DR,6568,9211,15211,0.105,551
2020-03-25T07:15:33,42.805,6.029,CST-1368DR,6568,9210,15210,0.105,551
2020-03-25T07:18:35,42.805,6.029,CST-1368DR,6568,9211,15212,0.105,551
2020-03-25T07:21:36,42.805,6.029,CST-1368DR,6568,9211,15212,0.105,551
2020-03-25T07:24:38,42.805,6.029,CST-1368DR,6568,9210,15211,0.105,551
2020-03-25T07:27:40,42.805,6.029,CST-1368DR,6568,9211,15211,0.105,551
2020-03-25T07:30:41,42.805,6.029,CST-1368DR,6568,9210,15211,0.105,551
2020-03-25T07:33:43,42.805,6.029,CST-1368DR,6568,9211,15211,0.105,551
2020-03-25T07:36:45,42.805,6.029,CST-1368DR,6568,9211,15212,0.105,551
2020-03-25T07:39:46,42.805,6.029,CST-1368DR,6568,9210,15210,0.105,551
2020-03-25T07:42:48,42.805,6.029,CST-1368DR,6568,9211,15212,0.105,551
2020-03-25T07:45:50,42.805,6.029,CST-1368DR,6568,9212,15213,0.105,551
2020-03-25T07:48:51,42.805,6.029,CST-1368DR,6568,9210,15210,0.105,551
2020-03-25T07:51:53,42.805,6.029,CST-1368DR,6568,9210,15211,0.105,551
2020-03-25T07:54:55,42.805,6.029,CST-1368DR,6568,9211,15211,0.105,551
2020-03-25T07:57:57,42.805,6.029,CST-1368DR,6568,9211,15211,0.105,551
2020-03-25T08:00:58,42.805,6.029,CST-1368DR,6568,9210,15210,0.105,551
2020-03-25T08:04:00,42.805,6.029,CST-1368DR,6568,9210,15209,0.106,551
2020-03-25T08:07:02,42.805,6.029,CST-1368DR,6568,9211,15212,0.105,551
2020-03-25T08:10:03,42.805,6.029,CST-1368DR,6568,9211,15211,0.105,551
2020-03-25T08:13:05,42.805,6.029,CST-1368DR,6568,9211,15212,0.105,551
2020-03-25T08:16:07,42.805,6.029,CST-1368DR,6568,9211,15211,0.105,551
2020-03-25T08:19:08,42.805,6.029,CST-1368DR,6568,9211,15211,0.105,551
2020-03-25T08:22:10,42.805,6.029,CST-1368DR,6568,9211,15212,0.105,551
2020-03-25T08:25:12,42.805,6.029,CST-1368DR,6568,9210,15211,0.105,551
2020-03-25T08:28:13,42.805,6.029,CST-1368DR,6568,9211,15211,0.105,550
2020-03-25T08:31:15,42.805,6.029,CST-1368DR,6568,9210,15209,0.106,551
2020-03-25T08:34:17,42.805,6.029,CST-1368DR,6568,9211,15211,0.105,551
2020-03-25T08:37:19,42.805,6.029,CST-1368DR,6568,9212,15213,0.105,551
2020-03-25T08:40:20,42.805,6.029,CST-1368DR,6568,9211,15211,0.105,551
2020-03-25T08:43:22,42.805,6.029,CST-1368DR,6568,9210,15211,0.105,550
2020-03-25T08:46:24,42.805,6.029,CST-1368DR,6568,9211,15211,0.105,551
2020-03-25T08:49:25,42.805,6.029,CST-1368DR,6568,9210,15211,0.105,551
2020-03-25T08:52:27,42.805,6.029,CST-1368DR,6568,9210,15209,0.106,551
2020-03-25T08:55:29,42.805,6.029,CST-1368DR,6568,9211,15211,0.105,551
2020-03-25T08:58:31,42.805,6.029,CST-1368DR,6568,9211,15211,0.105,551
2020-03-25T09:01:32,42.805,6.029,CST-1368DR,6568,9210,15211,0.105,550
2020-03-25T09:04:34,42.805,6.029,CST-1368DR,6568,9211,15212,0.105,551
2020-03-25T09:07:36,42.805,6.029,CST-1368DR,6568,9210,15211,0.105,551
2020-03-25T09:10:37,42.805,6.029,CST-1368DR,6568,9211,15211,0.105,551
2020-03-25T09:13:39,42.805,6.029,CST-1368DR,6568,9211,15212,0.105,551
2020-03-25T09:16:41,42.805,6.029,CST-1368DR,6568,9209,15209,0.106,551
2020-03-25T09:19:42,42.805,6.029,CST-1368DR,6568,9210,15210,0.105,551
2020-03-25T09:22:44,42.805,6.029,CST-1368DR,6568,9211,15212,0.105,551
2020-03-25T09:25:46,42.805,6.029,CST-1368DR,6567,9210,15212,0.105,551
2020-03-25T09:28:47,42.805,6.029,CST-1368DR,6568,9210,15210,0.105,551
2020-03-25T09:31:49,42.805,6.029,CST-1368DR,6568,9210,15210,0.105,550
2020-03-25T09:34:51,42.805,6.029,CST-1368DR,6568,9211,15211,0.105,551
2020-03-25T09:37:52,42.805,6.029,CST-1368DR,6568,9211,15211,0.105,551
2020-03-25T09:40:54,42.805,6.029,CST-1368DR,6567,9209,15211,0.105,551
2020-03-25T09:43:56,42.805,6.029,CST-1368DR,6567,9211,15214,0.104,551
2020-03-25T09:46:58,42.805,6.029,CST-1368DR,6568,9210,15211,0.105,551
2020-03-25T09:49:59,42.805,6.029,CST-1368DR,6567,9210,15212,0.105,551
2020-03-25T09:53:01,42.805,6.029,CST-1368DR,6567,9210,15213,0.105,551
2020-03-25T09:56:03,42.805,6.029,CST-1368DR,6568,9211,15211,0.105,551
2020-03-25T09:59:04,42.805,6.029,CST-1368DR,6567,9210,15212,0.105,551
2020-03-25T10:02:06,42.805,6.029,CST-1368DR,6567,9210,15212,0.105,551
2020-03-25T10:05:08,42.805,6.029,CST-1368DR,6567,9210,15212,0.105,551
2020-03-25T10:08:10,42.805,6.029,CST-1368DR,6567,9210,15212,0.105,551
2020-03-25T10:11:11,42.805,6.029,CST-1368DR,6567,9209,15211,0.105,551
2020-03-25T10:14:13,42.805,6.029,CST-1368DR,6567,9210,15212,0.105,550
2020-03-25T10:17:15,42.805,6.029,CST-1368DR,6567,9211,15213,0.105,550
2020-03-25T10:20:16,42.805,6.029,CST-1368DR,6567,9210,15213,0.105,551
2020-03-25T10:23:18,42.805,6.029,CST-1368DR,6567,9210,15213,0.105,551
2020-03-25T10:26:20,42.805,6.029,CST-1368DR,6567,9211,15213,0.105,551
2020-03-25T10:29:21,42.805,6.029,CST-1368DR,6567,9210,15212,0.105,551
2020-03-25T10:32:23,42.805,6.029,CST-1368DR,6567,9210,15212,0.105,551
2020-03-25T10:35:25,42.805,6.029,CST-1368DR,6567,9210,15213,0.105,551
2020-03-25T10:38:26,42.805,6.029,CST-1368DR,6567,9210,15212,0.105,551
2020-03-25T10:41:28,42.805,6.029,CST-1368DR,6567,9210,15213,0.105,551
2020-03-25T10:44:30,42.805,6.029,CST-1368DR,6567,9210,15212,0.105,551
2020-03-25T10:47:32,42.805,6.029,CST-1368DR,6567,9209,15211,0.105,551
2020-03-25T10:50:33,42.805,6.029,CST-1368DR,6567,9210,15213,0.105,551
2020-03-25T10:53:35,42.805,6.029,CST-1368DR,6567,9208,15209,0.106,551
2020-03-25T10:56:37,42.805,6.029,CST-1368DR,6567,9209,15211,0.105,551
2020-03-25T10:59:38,42.805,6.029,CST-1368DR,6567,9209,15211,0.105,551
2020-03-25T11:02:40,42.805,6.029,CST-1368DR,6567,9208,15209,0.106,551
2020-03-25T11:05:42,42.805,6.029,CST-1368DR,6567,9209,15211,0.105,551
2020-03-25T11:08:43,42.805,6.029,CST-1368DR,6567,9210,15212,0.105,550
2020-03-25T11:11:45,42.805,6.029,CST-1368DR,6567,9209,15210,0.105,551
2020-03-25T11:14:47,42.805,6.029,CST-1368DR,6567,9209,15210,0.105,551
2020-03-25T11:17:49,42.805,6.029,CST-1368DR,6567,9210,15212,0.105,551
2020-03-25T11:20:50,42.805,6.029,CST-1368DR,6567,9210,15212,0.105,551
2020-03-25T11:23:52,42.805,6.029,CST-1368DR,6567,9208,15209,0.106,551
2020-03-25T11:26:54,42.805,6.029,CST-1368DR,6567,9209,15211,0.105,551
2020-03-25T11:29:56,42.805,6.029,CST-1368DR,6567,9209,15211,0.105,551
2020-03-25T11:32:57,42.805,6.029,CST-1368DR,6567,9208,15209,0.106,551
2020-03-25T11:35:59,42.805,6.029,CST-1368DR,6567,9209,15211,0.105,551
2020-03-25T11:39:01,42.805,6.029,CST-1368DR,6567,9208,15209,0.106,551
2020-03-25T11:42:02,42.805,6.029,CST-1368DR,6567,9207,15208,0.106,551
2020-03-25T11:45:04,42.805,6.029,CST-1368DR,6567,9209,15210,0.105,551
2020-03-25T11:48:06,42.805,6.029,CST-1368DR,6567,9210,15212,0.105,551
2020-03-25T11:51:08,42.805,6.029,CST-1368DR,6567,9209,15210,0.105,551
2020-03-25T11:54:09,42.805,6.029,CST-1368DR,6567,9210,15212,0.105,551
2020-03-25T11:57:11,42.805,6.029,CST-1368DR,6567,9209,15210,0.105,551
2020-03-25T12:00:13,42.805,6.029,CST-1368DR,6567,9210,15212,0.105,551
2020-03-25T12:03:15,42.805,6.029,CST-1368DR,6567,9209,15211,0.105,550
2020-03-25T12:06:17,42.805,6.029,CST-1368DR,6567,9210,15212,0.105,551
2020-03-25T12:09:18,42.805,6.029,CST-1368DR,6567,9209,15211,0.105,551
2020-03-25T12:12:20,42.805,6.029,CST-1368DR,6567,9208,15209,0.106,551
2020-03-25T12:15:22,42.805,6.029,CST-1368DR,6567,9209,15211,0.105,551
2020-03-25T12:18:24,42.805,6.029,CST-1368DR,6567,9209,15210,0.105,551
2020-03-25T12:21:25,42.805,6.029,CST-1368DR,6567,9204,15202,0.107,551
2020-03-25T12:24:27,42.805,6.029,CST-1368DR,6567,9208,15208,0.106,551
2020-03-25T12:27:29,42.805,6.029,CST-1368DR,6567,9209,15210,0.105,551
2020-03-25T12:30:30,42.805,6.029,CST-1368DR,6567,9209,15210,0.105,551
2020-03-25T12:33:32,42.805,6.029,CST-1368DR,6567,9209,15211,0.105,551
2020-03-25T12:36:34,42.805,6.029,CST-1368DR,6567,9209,15210,0.105,550
2020-03-25T12:39:35,42.805,6.029,CST-1368DR,6567,9210,15212,0.105,551
2020-03-25T12:42:37,42.805,6.029,CST-1368DR,6567,9209,15210,0.105,551
2020-03-25T12:45:39,42.805,6.029,CST-1368DR,6567,9209,15210,0.105,551
2020-03-25T12:48:41,42.805,6.029,CST-1368DR,6567,9209,15211,0.105,550
2020-03-25T12:51:42,42.805,6.029,CST-1368DR,6567,9209,15211,0.105,551
2020-03-25T12:54:44,42.805,6.029,CST-1368DR,6567,9209,15210,0.105,551
2020-03-25T12:57:46,42.805,6.029,CST-1368DR,6567,9208,15209,0.106,551
2020-03-25T13:00:47,42.805,6.029,CST-1368DR,6567,9208,15209,0.106,551
2020-03-25T13:03:49,42.805,6.029,CST-1368DR,6567,9208,15209,0.106,551
2020-03-25T13:06:51,42.805,6.029,CST-1368DR,6567,9209,15210,0.105,551
2020-03-25T13:09:52,42.805,6.029,CST-1368DR,6567,9208,15208,0.106,551
2020-03-25T13:12:54,42.805,6.029,CST-1368DR,6567,9208,15209,0.106,551
2020-03-25T13:15:56,42.805,6.029,CST-1368DR,6567,9209,15210,0.105,551
2020-03-25T13:18:57,42.805,6.029,CST-1368DR,6567,9209,15211,0.105,551
2020-03-25T13:21:59,42.805,6.029,CST-1368DR,6567,9208,15209,0.106,551
2020-03-25T13:25:01,42.805,6.029,CST-1368DR,6567,9209,15210,0.105,551
2020-03-25T13:28:03,42.805,6.029,CST-1368DR,6567,9209,15211,0.105,551
2020-03-25T13:31:04,42.805,6.029,CST-1368DR,6567,9209,15210,0.105,551
2020-03-25T13:34:06,42.805,6.029,CST-1368DR,6567,9209,15211,0.105,551
2020-03-25T13:37:08,42.805,6.029,CST-1368DR,6567,9208,15209,0.106,551
2020-03-25T13:40:10,42.805,6.029,CST-1368DR,6567,9208,15209,0.106,551
2020-03-25T13:43:11,42.805,6.029,CST-1368DR,6567,9210,15212,0.105,551
2020-03-25T13:46:13,42.805,6.029,CST-1368DR,6567,9208,15209,0.106,551
2020-03-25T13:49:15,42.805,6.029,CST-1368DR,6567,9208,15209,0.106,551
2020-03-25T13:52:16,42.805,6.029,CST-1368DR,6567,9209,15210,0.105,551
2020-03-25T13:55:18,42.805,6.029,CST-1368DR,6567,9208,15209,0.106,551
2020-03-25T13:58:20,42.805,6.029,CST-1368DR,6567,9209,15210,0.105,551
2020-03-25T14:01:22,42.805,6.029,CST-1368DR,6567,9209,15210,0.105,551
2020-03-25T14:04:23,42.805,6.029,CST-1368DR,6567,9209,15211,0.105,551
2020-03-25T14:07:25,42.805,6.029,CST-1368DR,6567,9208,15209,0.106,551
2020-03-25T14:10:27,42.805,6.029,CST-1368DR,6566,9208,15212,0.105,551
2020-03-25T14:13:29,42.805,6.029,CST-1368DR,6566,9208,15212,0.105,551
2020-03-25T14:16:30,42.805,6.029,CST-1368DR,6566,9207,15210,0.105,551
2020-03-25T14:19:32,42.805,6.029,CST-1368DR,6566,9209,15212,0.105,551
2020-03-25T14:22:34,42.805,6.029,CST-1368DR,6566,9208,15211,0.105,551
2020-03-25T14:25:35,42.805,6.029,CST-1368DR,6566,9208,15212,0.105,551
2020-03-25T14:28:37,42.805,6.029,CST-1368DR,6567,9208,15208,0.106,550
2020-03-25T14:31:39,42.805,6.029,CST-1368DR,6566,9208,15211,0.105,551
2020-03-25T14:34:40,42.805,6.029,CST-1368DR,6566,9207,15210,0.105,551
2020-03-25T14:37:42,42.805,6.029,CST-1368DR,6566,9208,15212,0.105,551
2020-03-25T14:40:44,42.805,6.029,CST-1368DR,6566,9204,15204,0.107,551
2020-03-25T14:43:46,42.805,6.029,CST-1368DR,6566,9208,15210,0.105,551
2020-03-25T14:46:47,42.805,6.029,CST-1368DR,6566,9208,15211,0.105,551
2020-03-25T14:49:49,42.805,6.029,CST-1368DR,6566,9209,15212,0.105,551
2020-03-25T14:52:51,42.805,6.029,CST-1368DR,6566,9208,15210,0.105,551
2020-03-25T14:55:52,42.805,6.029,CST-1368DR,6566,9208,15210,0.105,551
2020-03-25T14:58:54,42.805,6.029,CST-1368DR,6566,9208,15211,0.105,551
2020-03-25T15:01:56,42.805,6.029,CST-1368DR,6566,9206,15208,0.106,551
2020-03-25T15:04:57,42.805,6.029,CST-1368DR,6566,9208,15211,0.105,551
2020-03-25T15:07:59,42.805,6.029,CST-1368DR,6566,9207,15210,0.105,551
2020-03-25T15:11:01,42.805,6.029,CST-1368DR,6566,9208,15210,0.105,551
2020-03-25T15:14:03,42.805,6.029,CST-1368DR,6566,9208,15210,0.105,551
2020-03-25T15:17:04,42.805,6.029,CST-1368DR,6566,9208,15210,0.105,551
2020-03-25T15:20:06,42.805,6.029,CST-1368DR,6566,9207,15210,0.105,550
2020-03-25T15:23:08,42.805,6.029,CST-1368DR,6566,9207,15210,0.105,551
2020-03-25T15:26:09,42.805,6.029,CST-1368DR,6566,9208,15211,0.105,551
2020-03-25T15:29:11,42.805,6.029,CST-1368DR,6566,9208,15210,0.105,551
2020-03-25T15:32:13,42.805,6.029,CST-1368DR,6566,9207,15210,0.105,551
2020-03-25T15:35:14,42.805,6.029,CST-1368DR,6566,9206,15208,0.106,551
2020-03-25T15:38:16,42.805,6.029,CST-1368DR,6566,9209,15212,0.105,551
2020-03-25T15:41:18,42.805,6.029,CST-1368DR,6566,9206,15208,0.106,551
2020-03-25T15:44:20,42.805,6.029,CST-1368DR,6566,9208,15211,0.105,551
2020-03-25T15:47:22,42.805,6.029,CST-1368DR,6566,9208,15210,0.105,551
2020-03-25T15:50:23,42.805,6.029,CST-1368DR,6566,9207,15210,0.105,551
2020-03-25T15:53:25,42.805,6.029,CST-1368DR,6566,9207,15210,0.105,551
2020-03-25T15:56:27,42.805,6.029,CST-1368DR,6566,9207,15209,0.106,551
2020-03-25T15:59:29,42.805,6.029,CST-1368DR,6566,9208,15211,0.105,551
2020-03-25T16:02:30,42.805,6.029,CST-1368DR,6566,9208,15210,0.105,551
2020-03-25T16:05:32,42.805,6.029,CST-1368DR,6566,9208,15211,0.105,551
2020-03-25T16:08:34,42.805,6.029,CST-1368DR,6566,9208,15210,0.105,551
2020-03-25T16:11:35,42.805,6.029,CST-1368DR,6566,9207,15209,0.106,551
2020-03-25T16:14:37,42.805,6.029,CST-1368DR,6566,9208,15211,0.105,551
2020-03-25T16:17:39,42.805,6.029,CST-1368DR,6566,9208,15210,0.105,551
2020-03-25T16:20:40,42.805,6.029,CST-1368DR,6566,9206,15208,0.106,551
2020-03-25T16:23:42,42.805,6.029,CST-1368DR,6566,9207,15209,0.106,551
2020-03-25T16:26:44,42.805,6.029,CST-1368DR,6566,9205,15207,0.106,551
2020-03-25T16:29:46,42.805,6.029,CST-1368DR,6566,9206,15208,0.106,551
2020-03-25T16:32:47,42.805,6.029,CST-1368DR,6566,9207,15209,0.106,551
2020-03-25T16:35:49,42.805,6.029,CST-1368DR,6566,9206,15208,0.106,551
2020-03-25T16:38:51,42.805,6.029,CST-1368DR,6566,9207,15209,0.106,551
2020-03-25T16:41:53,42.805,6.029,CST-1368DR,6566,9207,15209,0.106,551
2020-03-25T16:44:54,42.805,6.029,CST-1368DR,6566,9207,15210,0.105,551
2020-03-25T16:47:56,42.805,6.029,CST-1368DR,6566,9206,15208,0.106,551
2020-03-25T16:50:58,42.805,6.029,CST-1368DR,6566,9207,15209,0.106,551
2020-03-25T16:53:59,42.805,6.029,CST-1368DR,6566,9206,15208,0.106,550